Regional Weather Roundup
Issued by NWS Goodland, KS

Home | Current Version | Previous Version | Text Only | Print | Product List | Glossary On
Versions: 1 2 3 4 5 6 7 8 9 10 11 12 13 14 15 16 17 18 19 20 21 22 23 24 25 26 27 28 29 30 31 32 33 34 35 36 37 38 39 40 41 42 43 44 45 46 47 48 49 50
000
ASUS43 KGLD 272008
RWRGLD

GOODLAND FORECAST AREA HOURLY WEATHER ROUNDUP
NATIONAL WEATHER SERVICE GOODLAND KS
200 PM MDT MON MAR 27 2017

...OFFICIAL OBSERVATIONS...

CITY           SKY/WX    TMP DP  RH WIND       PRES   REMARKS
GOODLAND KS    SUNNY     63  38  39 SE8       29.88F
HILL CITY KS   SUNNY     58  46  64 VRB6      29.93F
IMPERIAL NEB   SUNNY     62  37  39 SW7       29.88F
MCCOOK NEB     SUNNY     64  41  42 VRB3      29.89F
AKRON CO       PTSUNNY   61  31  32 SE18      29.87F
BURLINGTON CO  SUNNY     62  40  44 S10G20    29.89F
LIMON CO       MOSUNNY   57  35  43 S17G26    29.89F
$$

...UNOFFICIAL OBSERVATIONS...

CITY           SKY/WX    TMP DP  RH WIND       PRES   REMARKS
LENORA KS        N/A     65  32  29 CALM        N/A
NORTON KS      SUNNY     54  43  66 SE5       29.93F
SHARON SPRINGS   N/A     63  43  48 CALM        N/A
TRENTON NEB      N/A     65  32  29 CALM        N/A
KIT CARSON CO    N/A     61  35  37 MISG        N/A
YUMA CO        FAIR      61  19  20 SE8G16    29.87F
$$




USA.gov is the U.S. government's official web portal to all federal, state and local government web resources and services.